Birmingham, AL

11:49 PM CDT on May 28, 2017 (GMT -0500)
UAB HHB | | Change Station

Elev 617 ft 33.50 °N, 86.81 °W | Updated 44 seconds ago

Partly Cloudy
Partly Cloudy
73.8 °F
Feels Like 74 °F
N
9.0
Wind Variable Wind from NE
Gusts 14.0 mph

Today
High -- | Low -- °F
--% Chance of Precip.
Yesterday
High -- | Low -- °F
Precip. -- in
Pressure 29.97 in
Visibility 10.0 miles
Clouds Few 25000 ft
Heat Index 74 °F
Dew Point 68 °F
Humidity 82%
Rainfall 0.11 in
Snow Depth Not available.
5:39 AM 7:49 PM
Waxing Crescent, 16% visible
METAR KBHM 290353Z 25006KT 10SM FEW250 23/19 A2999 RMK AO2 SLP148 T02330194
Pressure 29.97 in
Visibility 10.0 miles
Clouds Few 25000 ft
Heat Index 74 °F
Dew Point 68 °F
Humidity 82%
Rainfall 0.11 in
Snow Depth Not available.
5:39 AM 7:49 PM
Waxing Crescent, 16% visible
METAR KBHM 290353Z 25006KT 10SM FEW250 23/19 A2999 RMK AO2 SLP148 T02330194

Get Severe Weather Alerts

Thanks for signing up!

Be on the lookout for a verification email in your inbox.

You'll start receiving the daily forecast at 6 AM.

×

10-Day Weather Forecast

Almanac

Astronomy

May. 28, 2017 Rise Set
Actual Time
Civil Twilight
Nautical Twilight
Astronomical Twilight
Moon
Length of Visible Light
Length of Day
Tomorrow will be .
, % of the Moon is Illuminated

Today's Extremes

State Highs State Lows

Community

WunderPhotos

Category 6

Welcome to Category 6. This is the collective home for Weather Underground's featured writeups by Dr. Jeff Masters (right), Bob Henson (left), Chris Burt, and other regular contributors.

Nearby

Air Quality

  Air Quality AQ Index Pollutant
Not available.

Snow Depth

Station Depth Elevation

Earthquake Activity

City Distance Mag. Time & Date
Minimum magnitude displayed is 2.5.

Coastal Water Temperatures

Place Temperature

Stations

Nearby Weather Stations

Station Location Temp. Windchill Dew Point Humidity Wind Precip. Elev Updated Type
                   

Watches & Warnings

There are currently no watches in effect.